RH
7 16 23 26 16 14 13 9 6 6 4 5 7 10 9 8 17 26 42 41 36 18 21 21 16 17 17 18 22 30 44 65 69 69 67 64 60 57 58 57 56 60 63 74 72 74 76 67 58
8 32 29 18 17 16 12 7 7 5 4 9 10 11 10 10 10 29 42 46 54 12 20 18 16 16 16 17 20 28 43 60 68 71 71 69 67 62 63 62 62 66 69 76 81 78 65 62 62
14 28 20 17 16 16 14 8 7 4 7 8 8 7 9 11 10 24 39 46 52 32 19 17 16 16 16 18 22 31 42 57 68 71 72 73 71 71 69 70 64 69 70 75 78 70 72 59 56
21 32 20 19 16 11 9 8 6 5 6 8 8 7 12 15 24 28 37 41 44 53 24 18 17 16 18 18 21 31 44 55 66 74 75 73 73 74 73 76 73 69 74 75 71 71 72 60 56
23 21 22 19 16 11 9 7 6 6 6 8 9 8 9 15 19 32 40 42 44 51 45 23 17 18 19 20 23 33 45 53 61 64 69 76 76 78 79 78 75 71 76 77 72 70 70 57 60
26 20 21 19 15 10 8 7 6 5 6 7 8 9 9 9 17 28 40 46 50 55 40 22 20 19 20 22 26 32 43 53 58 60 61 70 88 81 87 84 82 81 78 80 77 76 68 57 69
26 21 23 18 15 12 9 7 6 6 6 6 6 11 9 10 15 32 38 49 56 59 42 21 22 22 23 23 26 34 44 54 58 60 86 77 88 92 90 90 76 99 98 86 82 74 65 69 69
28 22 23 18 16 14 9 8 6 7 7 7 6 8 8 12 28 32 43 50 62 69 52 22 24 25 26 26 28 32 42 58 65 67 75 73 82 88 87 78 61 66 91 95 88 81 72 74 74
25 27 27 21 17 14 10 9 7 7 7 7 7 8 10 22 27 40 46 49 58 72 68 32 28 27 29 30 29 29 42 58 70 71 73 74 77 79 83 83 64 74 76 99 92 87 72 72 77
20 28 25 17 14 13 10 9 9 9 8 8 8 8 9 16 22 25 44 48 54 65 78 54 35 32 35 46 33 25 46 61 71 74 75 74 71 73 83 80 79 66 77 88 92 78 70 78 76
15 22 18 15 12 11 10 11 10 11 11 9 10 11 10 12 16 19 29 42 50 58 75 83 66 43 42 76 49 41 72 79 81 80 84 84 79 73 81 83 77 69 63 82 79 81 65 71 78
16 13 12 12 13 13 12 12 12 13 13 10 10 10 12 11 14 18 19 31 42 51 63 77 79 68 43 53 43 39 76 75 81 84 90 92 91 84 80 79 76 76 75 76 86 75 68 59 83
12 11 11 12 12 12 12 12 12 12 12 11 11 11 11 12 12 13 15 18 29 43 53 66 75 77 62 83 45 38 87 78 74 84 88 91 93 90 85 83 73 76 76 73 85 82 77 64 83
12 11 10 10 11 10 11 11 10 10 10 11 11 11 12 12 13 13 12 14 19 33 49 60 71 84 94 62 33 29 60 90 84 89 94 93 93 94 89 89 82 75 73 83 85 78 77 82 85
17 18 16 15 14 13 12 14 13 12 12 12 12 13 12 12 13 13 12 12 15 24 37 57 65 85 89 55 34 28 34 56 83 80 89 92 98 98 96 92 89 83 87 89 79 82 88 92 90
19 17 20 13 10 10 11 18 12 11 11 12 13 13 13 13 13 14 14 12 13 18 30 59 62 74 77 53 42 31 28 37 65 86 96 96 94 99 99 98 94 89 77 75 81 88 96 96 89
21 27 20 16 10 10 11 18 13 12 13 13 14 13 13 14 14 14 14 12 12 16 23 55 58 72 78 86 77 41 32 42 51 98 97 98 95 94 94 95 91 84 74 78 82 90 97 100 96
22 20 17 16 12 13 14 16 15 14 13 13 15 15 15 14 15 15 14 12 11 15 26 54 62 74 78 99 73 42 34 45 55 77 86 94 96 92 87 96 93 86 73 83 91 98 100 94 97
20 23 23 18 13 15 16 15 14 12 11 12 12 13 16 17 16 14 12 10 11 16 41 57 64 71 84 97 60 40 36 50 54 96 100 98 93 90 95 99 95 90 84 78 86 99 94 91 86
19 20 21 17 15 18 17 16 16 17 17 14 12 12 14 17 17 16 12 11 15 27 42 57 68 80 93 91 55 54 53 57 65 63 90 84 87 90 100 97 98 92 92 89 90 94 97 99 85
21 22 22 21 17 18 24 23 18 15 14 16 15 14 13 14 17 17 15 13 21 32 50 63 73 89 95 88 79 76 85 90 99 98 95 80 84 92 92 97 98 99 99 99 90 99 92 86 90
29 18 19 25 26 39 22 38 21 14 14 15 16 17 17 14 13 16 16 13 26 30 55 66 82 92 97 90 85 71 59 65 75 86 89 92 94 96 95 97 90 98 83 98 97 99 89 87 92
21 19 24 27 36 38 34 30 20 14 15 14 15 15 16 16 14 15 16 14 31 33 51 66 80 90 93 94 90 80 67 75 74 86 91 100 98 94 98 98 98 91 91 96 100 100 97 92 87
23 28 26 31 36 52 37 26 24 21 30 30 24 25 31 20 15 16 17 15 28 40 54 65 78 89 91 94 92 79 78 86 86 92 96 99 98 90 92 89 94 100 99 94 100 100 87 86 90
30 37 42 41 36 46 48 59 28 37 36 29 29 40 45 53 61 58 44 16 16 41 53 66 79 86 88 90 93 87 84 86 88 87 99 100 89 86 85 79 85 96 100 96 97 97 94 89 86
29 36 48 46 51 42 35 84 47 34 41 53 54 56 59 65 72 77 71 40 23 48 60 72 79 81 87 88 89 89 87 82 90 93 91 90 83 87 87 83 96 100 100 99 100 100 92 92 90
29 34 26 43 38 46 34 43 65 65 49 50 55 60 67 76 84 88 79 54 27 46 64 73 78 78 84 89 90 91 89 86 91 92 96 89 86 86 90 88 98 99 100 99 100 99 95 90 81
27 26 59 80 70 52 29 38 86 83 73 59 58 63 75 86 94 99 99 90 56 53 69 78 75 77 84 84 88 88 90 92 90 94 93 98 97 95 92 92 97 100 100 100 100 99 91 91 93
31 40 38 49 54 69 84 95 92 80 71 64 59 66 83 94 100 98 99 100 100 88 80 76 85 91 80 91 86 90 94 94 93 90 95 90 91 94 94 95 93 92 98 99 95 96 97 92 91
25 27 38 68 55 54 59 66 71 57 56 57 62 71 88 98 100 100 100 100 100 100 100 100 95 95 87 99 88 91 99 94 91 90 87 86 95 88 91 95 96 97 97 100 99 98 97 98 100
Wind_Speed
13 11 5 10 7 8 16 19 20 18 12 5 2 4 12 15 12 3 9 11 13 9 9 13 10 8 7 8 9 10 11 12 13 14 14 13 13 13 12 11 13 15 16 15 16 17 18 17 15
12 9 9 10 9 14 14 21 20 16 3 11 6 3 13 10 6 13 12 13 12 8 13 11 11 9 8 8 9 11 12 13 14 15 15 15 15 15 14 15 16 16 16 16 16 15 15 15 15
14 12 12 5 13 17 18 23 22 16 11 6 3 11 9 6 12 6 12 15 13 8 13 12 10 9 7 6 8 11 13 14 15 16 16 17 16 16 17 17 17 18 19 17 16 16 16 16 13
12 9 13 13 22 20 24 21 22 20 7 5 7 11 5 9 3 3 9 15 14 10 10 12 10 8 7 5 6 9 12 14 15 16 17 19 18 18 19 19 19 21 20 18 18 18 15 14 12
18 13 11 17 24 25 22 29 24 19 13 8 12 12 9 9 10 5 7 15 16 15 13 12 12 10 8 7 8 10 12 14 15 15 17 19 20 20 20 21 22 24 22 21 22 19 16 14 14
15 22 14 18 24 25 23 29 25 20 12 16 10 8 11 12 6 13 12 16 17 17 16 15 15 12 11 9 9 11 13 14 15 15 16 17 19 19 19 20 23 26 23 21 20 18 16 15 17
18 13 20 24 23 24 22 28 17 17 16 16 20 16 15 6 9 8 16 18 17 18 18 16 17 15 13 10 10 12 13 13 14 13 14 15 17 18 22 25 24 17 14 22 19 18 15 17 19
25 14 27 21 20 26 22 25 11 12 20 24 20 16 15 9 7 12 12 17 16 19 19 19 18 17 14 11 11 12 13 14 14 15 15 16 15 18 21 21 21 16 19 20 18 16 15 18 20
25 15 19 25 25 23 29 21 23 15 23 21 20 14 12 11 6 5 13 16 20 20 18 22 19 17 15 12 12 12 13 15 16 17 17 17 17 18 19 20 19 18 16 20 17 17 15 17 20
19 17 26 24 23 22 26 25 18 19 19 20 20 16 20 11 8 8 13 20 23 23 20 23 21 19 15 13 12 10 12 15 17 17 18 18 19 19 22 21 19 23 9 18 16 16 14 19 22
27 24 22 27 31 32 26 21 20 21 17 20 17 23 25 19 17 15 15 19 25 25 20 20 19 20 18 14 13 9 7 9 13 17 17 19 20 22 21 21 21 18 18 27 23 17 17 21 23
25 30 31 29 32 31 24 30 19 27 27 27 25 23 19 21 21 22 18 20 24 30 25 23 23 18 20 16 16 10 7 10 11 13 19 19 21 20 21 21 27 20 25 27 28 22 22 23 24
24 24 31 29 31 33 29 25 24 32 30 30 29 28 25 24 28 21 21 24 23 28 30 27 25 19 18 19 16 12 14 12 13 17 18 21 20 21 21 22 27 26 26 30 33 27 25 27 25
23 24 24 24 26 29 24 26 28 32 33 35 34 34 32 30 33 29 25 29 28 27 30 31 26 21 23 23 18 15 22 12 15 19 16 20 20 21 22 24 23 25 27 28 28 24 25 27 27
23 21 20 22 26 26 29 27 26 34 33 36 34 33 34 35 34 34 31 36 31 28 27 33 29 30 31 22 17 15 18 25 23 21 17 17 19 20 21 25 25 26 27 26 25 26 29 28 29
19 19 18 18 23 26 27 26 24 31 29 30 34 31 31 31 32 34 32 37 32 31 30 33 32 34 28 20 17 17 16 18 23 20 18 19 21 21 21 24 25 27 27 23 25 27 31 33 30
15 18 21 23 24 20 13 21 20 24 22 18 18 19 26 30 31 33 30 37 35 28 34 35 34 33 25 18 21 16 16 17 20 21 19 20 21 21 23 23 24 25 26 27 25 26 29 32 31
15 17 18 19 14 14 17 20 20 24 25 25 26 25 19 21 22 28 33 36 38 30 32 37 35 33 27 25 24 18 16 18 20 19 19 19 23 21 22 24 25 25 24 22 19 24 29 29 29
17 19 20 22 20 19 20 22 22 22 25 22 27 29 23 26 25 30 29 32 33 27 33 35 36 35 27 31 24 21 19 19 18 20 20 21 21 20 21 23 25 24 28 25 19 30 31 31 31
16 19 20 19 21 20 22 24 21 20 23 27 26 27 28 23 29 23 21 23 26 24 32 34 35 31 31 31 22 20 16 13 16 17 19 20 21 21 21 22 25 25 30 27 23 27 34 26 30
17 18 18 22 20 21 20 26 24 23 30 36 31 27 29 24 28 27 25 23 27 23 34 35 34 30 32 24 21 21 19 17 15 15 14 17 18 22 21 24 23 27 30 31 28 38 36 34 29
17 17 19 17 16 14 16 16 21 20 18 13 20 30 28 28 33 29 26 29 29 30 29 33 32 31 31 26 24 24 20 22 19 16 15 16 17 17 17 21 21 25 25 30 32 40 36 33 31
18 17 15 13 16 19 20 14 16 21 20 18 10 16 20 28 23 22 26 27 30 32 31 33 34 31 32 28 26 24 18 15 12 11 15 16 17 18 17 16 21 25 26 27 31 42 42 39 33
9 13 16 15 14 13 22 17 17 15 7 12 13 18 18 6 17 19 24 26 29 33 33 35 35 30 28 30 25 18 12 16 14 17 19 20 20 18 17 16 20 25 32 30 27 41 40 39 34
10 11 8 11 10 13 14 10 17 11 3 4 9 20 21 26 29 25 19 30 29 38 37 36 33 30 29 27 25 19 19 19 14 17 18 18 17 18 15 14 13 16 35 35 29 43 40 39 34
14 13 8 9 7 11 6 7 1 13 16 27 29 25 22 25 27 27 31 21 16 37 36 36 32 30 30 26 26 20 19 17 17 16 14 16 13 15 12 10 10 22 24 25 30 32 44 38 31
10 12 14 18 17 14 11 15 7 22 18 17 19 20 22 25 25 27 28 21 7 32 34 32 31 31 28 28 24 21 19 14 15 14 13 12 13 13 10 8 12 16 19 27 30 28 40 36 31
15 7 5 3 4 8 8 6 6 12 13 11 12 14 15 19 20 22 25 28 7 20 25 26 28 33 27 24 22 19 21 17 17 16 13 11 9 10 12 13 15 16 19 24 31 35 35 33 29
13 13 12 5 8 3 4 3 1 4 3 8 8 11 9 12 16 18 20 21 17 5 17 23 19 28 30 21 23 22 18 16 14 14 14 14 10 9 9 12 14 17 17 20 24 26 29 31 32
20 15 16 8 7 6 9 3 7 7 5 3 8 11 9 10 14 15 15 17 13 12 8 11 15 23 31 16 21 19 18 17 14 13 12 13 12 10 9 9 11 16 18 22 26 27 29 27 28
Wind_Direction
230 222 224 266 249 234 252 250 257 260 257 289 273 335 322 314 25 29 127 125 177 162 159 165 172 185 197 210 221 226 221 212 209 206 209 211 210 209 206 204 197 190 186 188 185 185 185 182 180
214 209 238 267 239 253 255 249 248 257 294 86 73 309 288 276 297 129 133 143 153 144 158 166 167 169 184 201 216 224 227 221 215 215 214 217 219 216 212 210 200 196 189 187 186 185 187 177 174
195 208 231 221 242 251 267 284 296 303 120 124 238 256 242 252 258 107 131 146 145 163 161 159 165 166 179 200 216 225 227 226 222 218 217 221 224 217 217 213 208 200 193 192 189 183 182 175 172
183 215 241 252 244 240 236 248 264 288 126 121 266 269 192 242 34 62 152 141 149 165 172 163 168 169 178 203 221 225 228 228 225 224 222 225 222 224 218 215 213 203 199 192 183 182 180 176 174
206 214 232 241 247 252 264 279 284 275 301 199 210 248 252 187 213 178 167 160 163 166 198 185 180 184 193 213 223 225 225 227 227 226 228 231 229 224 221 220 217 210 202 192 186 181 182 181 173
213 223 243 239 245 250 251 252 258 253 243 275 203 224 264 264 197 182 181 171 177 177 205 194 193 195 203 215 229 234 233 229 230 228 229 230 234 228 220 223 224 213 200 195 187 181 180 181 168
228 228 239 253 264 273 280 287 243 243 242 243 259 234 248 237 199 152 184 181 190 197 207 200 204 205 205 219 231 237 239 235 232 226 220 224 229 223 218 215 221 223 204 188 188 186 182 177 167
235 253 259 259 262 263 269 279 263 250 254 254 260 261 259 200 218 187 175 192 194 208 210 216 210 212 212 223 242 242 242 237 227 220 224 226 224 225 229 226 231 244 247 190 189 190 186 179 173
231 249 253 254 260 272 275 268 264 238 262 251 259 250 252 177 149 193 210 204 202 221 214 220 219 215 214 226 239 241 240 234 227 223 219 224 224 228 226 223 217 204 235 198 183 186 191 190 177
231 242 243 252 268 280 288 297 305 275 264 256 255 260 225 221 196 211 215 213 208 214 224 228 221 217 209 227 247 242 232 234 230 226 224 225 228 227 224 219 208 220 229 204 199 172 192 191 185
234 244 255 261 275 289 298 298 289 294 267 264 232 238 258 227 231 238 230 226 213 212 209 236 232 215 206 200 241 246 232 242 243 230 231 231 228 226 223 215 194 205 205 195 206 204 187 196 197
245 243 250 261 266 278 292 297 274 274 281 277 278 276 241 246 230 212 226 234 226 210 210 216 242 226 209 204 234 213 219 242 249 240 223 227 219 223 216 212 206 206 198 202 197 191 192 200 198
261 264 263 266 271 270 281 276 275 272 271 273 275 270 261 250 250 235 229 236 232 221 208 209 231 234 209 189 232 198 200 237 247 241 228 226 219 218 214 204 205 224 209 206 209 212 213 198 197
268 280 281 276 284 280 272 268 266 263 267 267 264 263 259 249 245 252 242 243 229 224 213 201 213 223 213 213 224 210 191 205 219 228 226 225 219 213 215 211 212 212 210 209 213 210 199 195 186
276 281 281 278 272 269 265 265 259 267 264 262 257 256 249 253 245 238 235 237 234 216 222 199 208 209 218 214 220 221 207 211 217 224 216 220 216 216 220 213 206 209 206 214 209 211 215 200 181
272 270 272 267 264 255 240 256 262 262 257 251 244 242 251 245 244 242 233 238 237 216 209 199 211 221 225 209 214 223 230 228 226 229 221 222 217 213 215 216 215 212 214 215 215 216 219 197 181
249 260 264 275 282 289 246 267 276 271 281 281 291 270 239 241 239 239 234 235 235 222 204 198 213 221 212 195 221 221 224 224 232 220 219 223 216 217 215 210 209 215 217 215 218 227 221 172 175
258 263 270 279 267 298 283 281 289 286 290 286 286 279 270 267 244 234 232 233 228 220 203 194 205 217 204 198 215 222 224 223 227 224 217 220 221 216 221 219 228 217 204 207 216 224 185 174 178
269 280 286 288 296 304 286 276 274 276 266 261 260 264 255 262 259 238 233 226 222 210 183 190 205 218 195 207 208 217 224 221 220 214 219 223 223 220 226 224 220 219 215 224 214 190 174 184 176
267 275 276 280 284 271 273 273 271 262 262 253 247 246 247 246 263 260 233 221 217 190 188 193 208 213 194 210 201 214 221 224 226 220 218 224 226 226 218 221 226 229 220 210 197 189 178 183 180
259 263 276 281 282 282 290 279 275 271 248 251 249 246 243 246 239 240 238 234 191 186 186 192 207 199 198 199 195 201 197 201 196 213 216 219 222 219 223 219 225 218 233 215 208 195 180 180 187
268 274 275 290 284 279 293 300 288 284 295 249 225 231 234 237 240 228 232 231 192 189 188 189 200 196 198 190 202 209 209 198 215 214 213 212 209 209 219 218 233 220 229 226 210 195 181 183 186
275 284 288 283 283 286 279 272 279 284 272 248 214 224 214 216 239 234 230 225 198 189 192 191 201 197 199 193 206 205 208 202 201 197 214 212 208 209 216 216 217 229 220 219 214 200 189 185 187
265 281 269 270 262 269 262 264 268 270 9 333 42 39 21 230 227 240 239 241 199 187 186 187 199 195 198 196 209 205 187 192 184 196 205 201 212 209 209 219 235 238 230 221 210 195 187 190 191
245 267 260 267 253 247 9 333 253 110 317 37 40 41 26 14 3 355 330 227 223 183 183 186 192 193 197 199 194 197 189 193 186 203 206 207 208 205 213 234 229 238 205 207 209 193 192 196 197
221 232 242 273 285 310 306 270 342 133 64 45 38 30 19 6 353 345 339 318 235 173 177 182 186 191 194 194 194 191 202 200 188 202 217 213 220 221 218 219 198 218 206 210 217 215 197 197 197
243 242 240 265 279 279 257 228 30 359 39 38 29 21 2 359 349 345 341 350 189 173 176 184 185 192 190 190 192 187 192 185 180 191 198 204 209 207 205 211 182 190 220 224 205 203 196 198 204
242 255 247 322 266 267 266 285 51 25 7 29 38 30 7 344 346 352 9 23 15 153 165 171 190 197 184 190 191 186 184 179 189 195 190 187 191 189 200 205 208 207 199 201 200 194 194 202 209
214 230 245 243 251 278 297 309 99 15 320 342 24 38 20 351 357 358 13 43 63 113 180 192 183 178 183 180 187 180 179 178 182 191 195 206 205 207 207 209 210 205 202 203 199 199 205 211 221
248 235 229 228 250 284 283 294 231 224 218 33 38 46 30 21 12 13 21 45 73 90 139 185 190 182 183 172 191 185 171 174 180 191 195 203 194 213 204 194 202 214 209 208 212 215 219 222 221